| time (UTC) | temp F | wind direction | speed MPH | gust MPH | rain 1hr in | rain 24hr in | rain mn in | humidity % | barometer mb |
| 20260831165519 | 67 | 225 | 1.0 | 4.0 | 0.00 | 0.01 | 0.00 | 76 | 1013.4 |
| 20260831144019 | 55 | 23 | 0.0 | 2.0 | 0.00 | 0.01 | 0.00 | 95 | 1014.0 |
| 20260831143018 | 54 | 68 | 1.0 | 2.0 | 0.00 | 0.01 | 0.00 | 94 | 1014.0 |
| 20260831142039 | 54 | 68 | 1.0 | 3.0 | 0.00 | 0.01 | 0.00 | 94 | 1014.0 |
| 20260831141019 | 54 | 68 | 1.0 | 3.0 | 0.00 | 0.01 | 0.00 | 94 | 1014.0 |
| 20260831140022 | 54 | 90 | 1.0 | 3.0 | 0.00 | 0.01 | 0.00 | 94 | 1014.0 |
| 20260831135018 | 54 | 90 | 1.0 | 3.0 | 0.00 | 0.01 | 0.00 | 94 | 1014.0 |
| 20260831134019 | 54 | 68 | 2.0 | 3.0 | 0.00 | 0.01 | 0.00 | 94 | 1014.0 |
| 20260831133018 | 54 | 68 | 1.0 | 2.0 | 0.00 | 0.01 | 0.00 | 94 | 1014.1 |
| 20260831132020 | 54 | 90 | 1.0 | 2.0 | 0.00 | 0.01 | 0.00 | 94 | 1014.2 |
| 20260831131038 | 55 | 68 | 2.0 | 3.0 | 0.00 | 0.01 | 0.00 | 93 | 1014.4 |
| 20260831130018 | 55 | 68 | 1.0 | 3.0 | 0.00 | 0.01 | 0.00 | 94 | 1014.5 |
| 20260831125019 | 55 | 68 | 1.0 | 2.0 | 0.00 | 0.01 | 0.00 | 93 | 1014.5 |
| 20260831124019 | 55 | 68 | 1.0 | 2.0 | 0.00 | 0.01 | 0.00 | 93 | 1014.5 |
| 20260831123039 | 55 | 68 | 0.0 | 2.0 | 0.00 | 0.01 | 0.00 | 93 | 1014.5 |
| 20260831122019 | 55 | 68 | 2.0 | 3.0 | 0.00 | 0.01 | 0.00 | 92 | 1014.6 |
| 20260831121021 | 56 | 68 | 0.0 | 2.0 | 0.00 | 0.01 | 0.00 | 92 | 1014.6 |
| 20260831120020 | 56 | 68 | 0.0 | 2.0 | 0.00 | 0.01 | 0.00 | 92 | 1014.7 |
| 20260831115018 | 56 | 68 | 1.0 | 2.0 | 0.00 | 0.01 | 0.00 | 91 | 1014.7 |
| 20260831114018 | 57 | 63 | 0.0 | 0.0 | 0.00 | 0.01 | 0.00 | 91 | 1014.6 |
| 20260831113018 | 57 | 90 | 1.0 | 2.0 | 0.00 | 0.01 | 0.00 | 91 | 1014.8 |
| 20260831112018 | 57 | 90 | 2.0 | 3.0 | 0.00 | 0.01 | 0.00 | 91 | 1014.8 |
| 20260831111018 | 58 | 113 | 2.0 | 3.0 | 0.00 | 0.01 | 0.00 | 91 | 1015.0 |
| 20260831110018 | 58 | 90 | 1.0 | 2.0 | 0.00 | 0.01 | 0.00 | 91 | 1015.0 |
| 20260831105058 | 58 | 68 | 1.0 | 2.0 | 0.00 | 0.01 | 0.00 | 90 | 1015.0 |
| 20260831104018 | 58 | 90 | 2.0 | 3.0 | 0.00 | 0.01 | 0.00 | 90 | 1015.0 |
| 20260831103043 | 59 | 90 | 1.0 | 3.0 | 0.00 | 0.01 | 0.00 | 90 | 1015.0 |
| 20260831102018 | 59 | 68 | 2.0 | 3.0 | 0.00 | 0.01 | 0.00 | 89 | 1015.0 |
| 20260831101018 | 59 | 68 | 1.0 | 2.0 | 0.00 | 0.01 | 0.00 | 89 | 1015.1 |
| 20260831100019 | 59 | 68 | 1.0 | 2.0 | 0.00 | 0.01 | 0.00 | 89 | 1015.2 |
| 20260831095018 | 59 | 68 | 1.0 | 2.0 | 0.00 | 0.01 | 0.00 | 89 | 1015.2 |
| 20260831094018 | 59 | 123 | 0.0 | 0.0 | 0.00 | 0.01 | 0.00 | 89 | 1015.4 |
| 20260831093018 | 59 | 123 | 0.0 | 0.0 | 0.00 | 0.01 | 0.00 | 89 | 1015.5 |
| 20260831092018 | 59 | 113 | 1.0 | 2.0 | 0.00 | 0.01 | 0.00 | 89 | 1015.5 |
| 20260831091018 | 60 | 113 | 1.0 | 3.0 | 0.00 | 0.01 | 0.00 | 89 | 1015.7 |
| 20260831090018 | 60 | 135 | 1.0 | 3.0 | 0.00 | 0.01 | 0.00 | 89 | 1015.9 |
| 20260831085019 | 60 | 113 | 1.0 | 3.0 | 0.00 | 0.01 | 0.00 | 88 | 1015.9 |
| 20260831084018 | 60 | 90 | 1.0 | 3.0 | 0.00 | 0.01 | 0.00 | 88 | 1016.1 |
| 20260831083018 | 60 | 90 | 2.0 | 5.0 | 0.00 | 0.01 | 0.00 | 88 | 1016.1 |
| 20260831082018 | 60 | 90 | 2.0 | 3.0 | 0.00 | 0.01 | 0.00 | 88 | 1016.2 |
| 20260831081018 | 60 | 135 | 2.0 | 3.0 | 0.00 | 0.01 | 0.00 | 88 | 1016.2 |
| 20260831080019 | 60 | 135 | 2.0 | 3.0 | 0.00 | 0.01 | 0.00 | 88 | 1016.3 |
| 20260831075018 | 60 | 113 | 2.0 | 3.0 | 0.00 | 0.01 | 0.00 | 88 | 1016.3 |
| 20260831074018 | 60 | 113 | 3.0 | 4.0 | 0.00 | 0.01 | 0.00 | 88 | 1016.2 |
| 20260831073049 | 60 | 113 | 3.0 | 5.0 | 0.00 | 0.01 | 0.00 | 88 | 1016.4 |
| 20260831072057 | 60 | 90 | 1.0 | 2.0 | 0.00 | 0.01 | 0.00 | 88 | 1016.5 |
| 20260831071018 | 60 | 90 | 2.0 | 6.0 | 0.00 | 0.01 | 0.00 | 88 | 1016.6 |
| 20260831070018 | 60 | 113 | 3.0 | 4.0 | 0.00 | 0.01 | 0.01 | 88 | 1016.6 |
| 20260831065019 | 60 | 90 | 2.0 | 4.0 | 0.00 | 0.01 | 0.01 | 88 | 1016.6 |
| 20260831064019 | 60 | 90 | 2.0 | 5.0 | 0.00 | 0.01 | 0.01 | 88 | 1016.8 |
| 20260831063100 | 60 | 135 | 2.0 | 4.0 | 0.00 | 0.01 | 0.01 | 88 | 1016.9 |
| 20260831062019 | 60 | 90 | 1.0 | 2.0 | 0.00 | 0.01 | 0.01 | 88 | 1016.9 |
| 20260831061019 | 60 | 113 | 2.0 | 3.0 | 0.00 | 0.01 | 0.01 | 88 | 1016.7 |
| 20260831060019 | 60 | 45 | 1.0 | 2.0 | 0.00 | 0.01 | 0.01 | 88 | 1016.8 |
| 20260831055019 | 60 | 90 | 3.0 | 5.0 | 0.00 | 0.01 | 0.01 | 88 | 1016.9 |
| 20260831054019 | 60 | 90 | 3.0 | 6.0 | 0.00 | 0.01 | 0.01 | 87 | 1017.1 |
| 20260831053020 | 60 | 68 | 2.0 | 5.0 | 0.00 | 0.01 | 0.01 | 87 | 1017.1 |
| 20260831052019 | 60 | 68 | 3.0 | 5.0 | 0.00 | 0.01 | 0.01 | 87 | 1017.1 |
| 20260831051020 | 60 | 113 | 1.0 | 3.0 | 0.00 | 0.01 | 0.01 | 86 | 1017.0 |
| 20260831050047 | 60 | 68 | 1.0 | 2.0 | 0.00 | 0.01 | 0.01 | 86 | 1017.0 |
| 20260831045019 | 61 | 68 | 2.0 | 5.0 | 0.00 | 0.01 | 0.01 | 85 | 1016.9 |
| 20260831044039 | 61 | 0 | 1.0 | 2.0 | 0.00 | 0.01 | 0.01 | 84 | 1016.9 |
| 20260831043057 | 62 | 45 | 2.0 | 5.0 | 0.00 | 0.01 | 0.01 | 83 | 1017.1 |
| 20260831042019 | 62 | 113 | 3.0 | 5.0 | 0.00 | 0.01 | 0.01 | 83 | 1017.1 |
| 20260831041019 | 62 | 68 | 1.0 | 2.0 | 0.00 | 0.01 | 0.01 | 81 | 1017.0 |
| 20260831040019 | 63 | 23 | 3.0 | 6.0 | 0.00 | 0.01 | 0.01 | 80 | 1017.1 |
| 20260831035018 | 63 | 180 | 2.0 | 5.0 | 0.00 | 0.01 | 0.01 | 81 | 1017.1 |